36.52977, -87.35945

Hourly Observations for October 9, 2019

Temp ( °F °C ) Dew Point ( °F °C ) Humidity (%) Winds ( mph kmh ) Pressure ( in mb ) Visibility ( mi km ) Precip ( " mm )
12:52 am 00:52 Clear 59 15 54 12.2 83 83 N 7 11 30.13 1020 10 16.0934 0 0
1:52 am 01:52 Clear 59 15 53 11.7 81 81 N 6 9 30.14 1021 10 16.0934 0 0
2:52 am 02:52 Clear 59 15 53 11.7 81 81 NNW 3 6 30.14 1021 10 16.0934 0 0
3:52 am 03:52 Clear 58 14.4 53 11.7 84 84 NNW 3 6 30.16 1021 10 16.0934 0 0
4:52 am 04:52 Clear 57 13.9 53 11.7 87 87 NNW 5 7 30.17 1022 10 16.0934 0 0
5:52 am 05:52 Sunny 56 13.3 53 11.7 90 90 NW 3 6 30.19 1022 10 16.0934 0 0
6:52 am 06:52 Sunny 61 16.1 55 12.8 81 81 Calm 30.21 1023 10 16.0934 0 0
7:52 am 07:52 Sunny 66 18.9 55 12.8 68 68 NE 8 13 30.23 1024 10 16.0934 0 0
8:52 am 08:52 Sunny 69 20.6 54 12.2 59 59 E 9 15 30.24 1024 10 16.0934 0 0
9:52 am 09:52 Sunny 73 22.8 53 11.7 50 50 ENE 8 13 30.24 1024 10 16.0934 0 0
10:52 am 10:52 Sunny 74 23.3 53 11.7 48 48 E 7 11 30.25 1024 10 16.0934 0 0
11:52 am 11:52 Sunny 75 23.9 52 11.1 45 45 NE 9 15 30.24 1024 10 16.0934 0 0
12:52 pm 12:52 Sunny 76 24.4 53 11.7 45 45 E 12 19 30.23 1024 10 16.0934 0 0
1:52 pm 13:52 Sunny 77 25 52 11.1 42 42 ENE 12 19 30.22 1023 10 16.0934 0 0
2:52 pm 14:52 Sunny 78 25.6 53 11.7 42 42 N 12 19 30.2 1023 10 16.0934 0 0
3:52 pm 15:52 Sunny 78 25.6 52 11.1 40 40 ENE 9 15 30.19 1022 10 16.0934 0 0
4:52 pm 16:52 Sunny 78 25.6 51 10.6 39 39 NNE 15 24 30.18 1022 10 16.0934 0 0
5:52 pm 17:52 Sunny 77 25 49 9.4 37 37 NE 10 17 30.17 1022 10 16.0934 0 0
6:52 pm 18:52 Sunny 75 23.9 49 9.4 40 40 NNE 9 15 30.18 1022 10 16.0934 0 0
7:52 pm 19:52 Sunny 69 20.6 51 10.6 53 53 NE 6 9 30.18 1022 10 16.0934 0 0
8:52 pm 20:52 Clear 66 18.9 50 10 56 56 ENE 6 9 30.19 1023 10 16.0934 0 0
9:52 pm 21:52 Clear 65 18.3 49 9.4 56 56 NE 3 6 30.22 1023 10 16.0934 0 0
10:52 pm 22:52 Clear 61 16.1 51 10.6 70 70 NE 3 6 30.23 1024 10 16.0934 0 0
11:52 pm 23:52 Clear 60 15.6 49 9.4 67 67 NE 5 7 30.24 1024 10 16.0934 0 0

Powered by AerisWeather